This is the latest recevied weather packets stored in our database for station/object SM6LNJ-13. If no packets are shown the sender has not sent any weather packets the latest 1 day(s).
| Time | Temp. | Humidity | Pressure | Rain* | Wind** | Luminosity | Snow |
|---|---|---|---|---|---|---|---|
| 1778046350 | 6.67° C | 70% | 1411.8 hPa | 0 mm | 0.89 m/s, 107° | - | - |
| 1778046230 | 6.67° C | 71% | 1411.7 hPa | 0 mm | 0.89 m/s, 104° | - | - |
| 1778046225 | 6.67° C | 71% | 1414.9 hPa | 0 mm | 0.89 m/s, 108° | - | - |
| 1778045990 | 6.67° C | 71% | 1411.3 hPa | 0 mm | 0.89 m/s, 130° | - | - |
| 1778045870 | 6.67° C | 72% | 1414.6 hPa | 0 mm | 0.89 m/s, 106° | - | - |
| 1778045750 | 6.67° C | 72% | 1414.6 hPa | 0 mm | 0.89 m/s, 112° | - | - |
| 1778045630 | 6.67° C | 72% | 1414.5 hPa | 0 mm | 0.89 m/s, 110° | - | - |
| 1778045522 | 6.67° C | 73% | 1411.3 hPa | 0 mm | 0.89 m/s, 103° | - | - |
| 1778045390 | 6.67° C | 74% | 1414.6 hPa | 0 mm | 0.45 m/s, 97° | - | - |
| 1778045270 | 6.67° C | 74% | 1414.6 hPa | 0 mm | 0.89 m/s, 97° | - | - |
| 1778045150 | 6.67° C | 75% | 1411.2 hPa | 0 mm | 0.89 m/s, 93° | - | - |
| 1778045030 | 6.67° C | 76% | 1414.5 hPa | 0 mm | 0.45 m/s, 92° | - | - |
| 1778044910 | 6.11° C | 76% | 1414.1 hPa | 0 mm | 0.45 m/s, 83° | - | - |
| 1778044790 | 6.11° C | 77% | 1413.6 hPa | 0 mm | 0.45 m/s, 131° | - | - |
| 1778044670 | 6.11° C | 77% | 1413.5 hPa | 0 mm | 0.89 m/s, 102° | - | - |
| 1778044550 | 6.11° C | 78% | 1413.5 hPa | 0 mm | 0.89 m/s, 100° | - | - |
| 1778044430 | 6.11° C | 79% | 1413.5 hPa | 0 mm | 0.45 m/s, 122° | - | - |
| 1778044425 | 6.11° C | 80% | 1413.4 hPa | 0 mm | 0.45 m/s, 100° | - | - |
| 1778044190 | 6.11° C | 81% | 1413 hPa | 0 mm | 0.45 m/s, 96° | - | - |
| 1778044070 | 5.56° C | 81% | 1412.7 hPa | 0 mm | 0.45 m/s, 107° | - | - |
| 1778043950 | 5.56° C | 82% | 1412.5 hPa | 0 mm | 0.45 m/s, 110° | - | - |
| 1778043830 | 5.56° C | 83% | 1412.3 hPa | 0 mm | 0.45 m/s, 115° | - | - |
| 1778043710 | 5.56° C | 84% | 1412 hPa | 0 mm | 0.89 m/s, 93° | - | - |
| 1778043590 | 5.56° C | 85% | 1411.8 hPa | 0 mm | 0.45 m/s, 97° | - | - |
| 1778043470 | 5° C | 85% | 1411.4 hPa | 0 mm | 0.45 m/s, 96° | - | - |
* Rain latest hour (hover to see other rain measurements)
** Current wind speed in m/s (hover to see current wind gust speed)